Location: Berlin
(52.5200°N, 13.4050°E)
Time: 07:23:44
(UTC+02:00)

ISS - Visible Passes

Search period start: 27 May 2018 00:00
Search period end: 06 June 2018 00:00
Orbit: 402 x 407 km, 51.6° (Epoch: 27 May)

Date Brightness Start Highest point End Pass type
(mag) Time Alt. Az. Time Alt. Az. Time Alt. Az.
27 May -3.8 00:22:10 10° W 00:25:24 56° SSW 00:26:26 36° SE visible
27 May -3.8 21:53:33 10° WSW 21:56:49 69° S 22:00:05 10° E visible
27 May -3.9 23:29:58 10° W 23:33:14 69° S 23:35:43 16° ESE visible
28 May -2.3 01:06:35 10° W 01:08:21 22° WSW 01:08:21 22° WSW visible
28 May -3.9 22:37:46 10° W 22:41:03 76° S 22:44:19 10° E visible
29 May -3.3 00:14:16 10° W 00:17:21 38° SSW 00:17:42 36° S visible
29 May -3.6 23:22:01 10° W 23:25:12 51° SSW 23:27:06 21° SE visible
30 May -1.5 00:59:04 10° WSW 00:59:44 13° WSW 00:59:44 13° WSW visible
30 May -3.8 22:29:46 10° W 22:33:02 64° SSW 22:36:16 10° ESE visible
31 May -2.5 00:06:28 10° W 00:09:08 24° SSW 00:09:08 24° SSW visible
31 May -3.0 23:14:04 10° W 23:17:04 33° SSW 23:18:36 21° SSE visible
01 Jun -3.4 22:21:44 10° W 22:24:55 46° SSW 22:28:04 10° SE visible
01 Jun -1.7 23:59:02 10° WSW 00:00:41 14° SW 00:00:41 14° SW visible
02 Jun -2.2 23:06:15 10° W 23:08:46 21° SSW 23:10:11 16° S visible
03 Jun -2.7 22:13:45 10° W 22:16:40 30° SSW 22:19:34 10° SE visible
04 Jun -1.4 22:59:02 10° WSW 23:00:20 12° SW 23:01:38 10° SSW visible
